星链-5215 (STARLINK-5215 )

导读

STARLINK-5215是美国太空探索技术公司SpaceX星链星座的卫星,于2022年12月17日发射升空,归属第二代星链Group 4系列卫星。星链星座通过大规模低轨卫星组网,为全球提供高速互联网服务,STARLINK-5215承担着覆盖延伸、容量扩容,是星链星座全球服务网络的组成部分。

基本信息
目录编号:
54759
目录名称:
STARLINK-5215
国际标识:
2022-175B
轨道中心:
EARTH
卫星名称:
星链-5215
卫星全名:
星链-5215 (STARLINK-5215 )
卫星状态:
在轨 (已飞行1276 天)
发射日期:
2022-12-17 UTC
国别 :
美国 (US)
星等 :
--
轨道信息
数据来源 国际轨道数据 AOE轨道数据
星历时间 2026-06-15T01:10:57+0800
14小时前
查看轨道信息
2026-06-15T07:00:00+0800
8小时前
查看轨道信息
半长轴 6917.9km 6917.923km
偏心率 0.0001297 0.0000855
轨道倾角 53.161° 53.160°
近地点辐角 91.516° 350.633°
升交点赤经 323.697° 322.605°
平近点角 268.599° 246.822°
近地点 538.865km 539.194km
远地点 540.661km 540.378km
周期 95.438分钟 95.438分钟
每日圈数 15.088336 15.088262
详细信息
固有亮度:
5
最大亮度:
2.5
卫星平台:
Starlink v1.5
覆盖范围:
全球
运营商:
太空探索技术公司
运营商所在国:
美国
制造商(研发单位):
太空探索技术公司
制造商所在国:
美国
使用方式:
暂无
卫星简介
星链(Starlink)计划是由太空探索技术公司(SpaceX)提出的一个巨型低轨卫星互联网星座项目,计划在2019年至2024年间在太空搭建由约1.2万颗卫星组成的“星链”网络,其中1584颗将部署在地球上空550千米处的近地轨道,并从2020年开始工作。该卫星仍在工作。
2D轨道图
3D轨道图
轨道高度分析图
轨道倾角分析图
轨道综合分析图
查看轨道综合分析图